Location: Sandbach
(53.1410°N, 2.3660°W)
Time: 00:19:46
(UTC+00:00)

ISS - Visible Passes

Search period start: 01 December 2023 00:00
Search period end: 11 December 2023 00:00
Orbit: 416 x 417 km, 51.6° (Epoch: 30 November)

Date Brightness Start Highest point End Pass type
(mag) Time Alt. Az. Time Alt. Az. Time Alt. Az.
01 Dec -3.0 17:14:55 10° W 17:18:12 52° SSW 17:21:29 10° ESE visible
01 Dec -1.3 18:52:03 10° W 18:54:25 18° SW 18:54:25 18° SW visible
02 Dec -1.7 18:03:22 10° W 18:06:11 25° SSW 18:08:21 14° SSE visible
03 Dec -2.1 17:14:45 10° W 17:17:50 33° SSW 17:20:53 10° SE visible
04 Dec -0.8 18:03:43 10° WSW 18:05:30 14° SW 18:07:18 10° S visible
05 Dec -1.0 17:14:38 10° W 17:17:07 19° SSW 17:19:36 10° SSE visible
